Weather History for Linton Municipal Airport, ND

Change the Weather History Date:

Tuesday, March 11, 2014

  Actual Average (KBIS) Record (KBIS)
Temperature  
Mean Temperature 32 °F 28 °F  
Max Temperature 39 °F 38 °F 69 °F (2012)
Min Temperature 26 °F 18 °F -29 °F (1948)
Degree Days  
Heating Degree Days 32 37  
Month to date heating degree days 436  
Since 1 July heating degree days 6867  
Cooling Degree Days 0 0  
Month to date cooling degree days 0  
Year to date cooling degree days 0  
Moisture  
Dew Point 32 °F    
Average Humidity 95    
Maximum Humidity 100    
Minimum Humidity 75    
Precipitation  
Precipitation 0.00 in 0.02 in 0.57 in (1988)
Month to date precipitation 0.27  
Year to date precipitation 1.21  
Snow  
Snow 0.00 in 0.30 in 7.50 in (1988)
Month to date snowfall 3.5  
Since 1 July snowfall 41.0  
Snow Depth -    
Sea Level Pressure  
Sea Level Pressure 30.01 in    
Wind  
Wind Speed 6 mph (NW)    
Max Wind Speed 15 mph    
Max Gust Speed 22 mph    
Visibility 10 miles    
Events      
T = Trace of Precipitation, MM = Missing Value Source: NWS Daily Summary

Daily Weather History Graph

Daily Weather History Graph

Search for Another Location

Airport:

Trip Planner

Search our weather history database for the weather conditions in past years. The results will help you decide how hot, cold, wet, or windy it might be!

Date:

Astronomy

Mar. 11, 2014 Rise Set
Actual Time 8:01 AM CDT 7:41 PM CDT
Civil Twilight 7:31 AM CDT 8:11 PM CDT
Nautical Twilight 6:56 AM CDT 8:46 PM CDT
Astronomical Twilight 6:21 AM CDT 9:21 PM CDT
Moon 3:07 PM CDT (3/11) 5:08 AM CDT (3/11)
Length of Visible Light 12h 39m
Length of Day
11h 40m
Waxing Gibbous, 78% of the Moon is Illuminated
Mar 11
Waxing Gibbous
Mar 16
Full
Mar 23
Last Quarter
Mar 30
New
Apr 7
First Quarter

Hourly Weather History & Observations

Time (CDT) Temp. Windchill Dew Point Humidity Pressure Visibility Wind Dir Wind Speed Gust Speed Precip Events Conditions
12:15 AM 37.4 °F 32.8 °F 35.6 °F 93% 29.77 in 10.0 mi NW 5.8 mph - N/A   Partly Cloudy
12:35 AM 37.4 °F 34.9 °F 35.6 °F 93% 29.78 in 10.0 mi NW 3.5 mph - N/A   Clear
12:55 AM 37.4 °F 34.9 °F 35.6 °F 93% 29.78 in 10.0 mi NW 3.5 mph - N/A   Clear
1:15 AM 37.4 °F - 35.6 °F 93% 29.78 in 10.0 mi Calm Calm - N/A   Partly Cloudy
1:35 AM 35.6 °F 31.7 °F 35.6 °F 100% 29.78 in 10.0 mi NNW 4.6 mph - N/A   Partly Cloudy
1:55 AM 35.6 °F 32.8 °F 35.6 °F 100% 29.79 in 10.0 mi NNW 3.5 mph - N/A   Clear
2:15 AM 35.6 °F 30.7 °F 35.6 °F 100% 29.80 in 10.0 mi NNW 5.8 mph - N/A   Clear
2:35 AM 35.6 °F 30.7 °F 35.6 °F 100% 29.80 in 10.0 mi North 5.8 mph - N/A   Clear
2:55 AM 35.6 °F 32.8 °F 35.6 °F 100% 29.81 in 10.0 mi North 3.5 mph - N/A   Clear
3:15 AM 35.6 °F 32.8 °F 35.6 °F 100% 29.82 in 10.0 mi NW 3.5 mph - N/A   Clear
3:35 AM 35.6 °F 32.8 °F 35.6 °F 100% 29.82 in 10.0 mi West 3.5 mph - N/A   Clear
3:55 AM 33.8 °F 30.8 °F 33.8 °F 100% 29.83 in 10.0 mi West 3.5 mph - N/A   Clear
4:15 AM 33.8 °F 30.8 °F 33.8 °F 100% 29.83 in 10.0 mi West 3.5 mph - N/A   Partly Cloudy
4:35 AM 33.8 °F 30.8 °F 33.8 °F 100% 29.84 in 10.0 mi WNW 3.5 mph - N/A   Clear
4:55 AM 33.8 °F 30.8 °F 33.8 °F 100% 29.85 in 10.0 mi WNW 3.5 mph - N/A   Clear
5:15 AM 33.8 °F - 33.8 °F 100% 29.86 in 10.0 mi Calm Calm - N/A   Clear
5:35 AM 33.8 °F 29.6 °F 33.8 °F 100% 29.87 in 10.0 mi NNW 4.6 mph - N/A   Clear
5:55 AM 33.8 °F 28.6 °F 33.8 °F 100% 29.87 in 10.0 mi NNW 5.8 mph - N/A   Clear
6:15 AM 32.0 °F 26.4 °F 32.0 °F 100% 29.89 in 10.0 mi NNW 5.8 mph - N/A   Clear
6:35 AM 32.0 °F 25.6 °F 32.0 °F 100% 29.89 in 10.0 mi North 6.9 mph - N/A   Clear
6:55 AM 32.0 °F 25.6 °F 32.0 °F 100% 29.90 in 10.0 mi NNW 6.9 mph - N/A   Clear
7:15 AM 32.0 °F 26.4 °F 32.0 °F 100% 29.91 in 10.0 mi NNW 5.8 mph - N/A   Clear
7:35 AM 32.0 °F 26.4 °F 32.0 °F 100% 29.92 in 10.0 mi NW 5.8 mph - N/A   Clear
7:55 AM 32.0 °F 26.4 °F 32.0 °F 100% 29.93 in 10.0 mi NW 5.8 mph - N/A   Clear
8:15 AM 32.0 °F 28.7 °F 32.0 °F 100% 29.94 in 10.0 mi NW 3.5 mph - N/A   Clear
8:35 AM 32.0 °F 26.4 °F 32.0 °F 100% 29.95 in 10.0 mi NW 5.8 mph - N/A   Clear
8:55 AM 32.0 °F 25.6 °F 32.0 °F 100% 29.96 in 10.0 mi NNW 6.9 mph - N/A   Clear
9:15 AM 32.0 °F 24.2 °F 32.0 °F 100% 29.98 in 10.0 mi NNW 9.2 mph - N/A   Clear
9:35 AM 32.0 °F 24.8 °F 32.0 °F 100% 29.99 in 10.0 mi North 8.1 mph - N/A   Clear
9:55 AM 32.0 °F 25.6 °F 32.0 °F 100% 30.00 in 10.0 mi NW 6.9 mph - N/A   Clear
10:15 AM 32.0 °F 24.2 °F 32.0 °F 100% 30.01 in 10.0 mi NNW 9.2 mph - N/A   Partly Cloudy
10:35 AM 32.0 °F 23.0 °F 32.0 °F 100% 30.02 in 10.0 mi NNW 11.5 mph - N/A   Scattered Clouds
10:55 AM 32.0 °F 24.8 °F 32.0 °F 100% 30.03 in 10.0 mi North 8.1 mph - N/A   Mostly Cloudy
11:15 AM 33.8 °F 25.3 °F 32.0 °F 93% 30.05 in 10.0 mi North 11.5 mph - N/A   Overcast
11:35 AM 32.0 °F 24.8 °F 32.0 °F 100% 30.06 in 10.0 mi North 8.1 mph - N/A   Overcast
11:55 AM 33.8 °F 23.9 °F 32.0 °F 93% 30.07 in 10.0 mi North 15.0 mph - N/A   Overcast
12:15 PM 33.8 °F 24.8 °F 32.0 °F 93% 30.08 in 10.0 mi NNW 12.7 mph - N/A   Overcast
12:35 PM 35.6 °F 27.1 °F 32.0 °F 87% 30.10 in 10.0 mi NNW 12.7 mph 17.3 mph N/A   Mostly Cloudy
12:55 PM 33.8 °F 24.8 °F 32.0 °F 93% 30.10 in 10.0 mi North 12.7 mph - N/A   Overcast
1:15 PM 33.8 °F 23.9 °F 32.0 °F 93% 30.11 in 10.0 mi North 15.0 mph 21.9 mph N/A   Overcast
1:35 PM 33.8 °F 25.3 °F 32.0 °F 93% 30.12 in 10.0 mi North 11.5 mph - N/A   Overcast
1:55 PM 33.8 °F 24.8 °F 32.0 °F 93% 30.12 in 10.0 mi North 12.7 mph - N/A   Overcast
2:15 PM 33.8 °F 24.8 °F 32.0 °F 93% 30.11 in 10.0 mi North 12.7 mph - N/A   Overcast
2:35 PM 33.8 °F 25.3 °F 32.0 °F 93% 30.11 in 10.0 mi North 11.5 mph - N/A   Mostly Cloudy
2:55 PM 35.6 °F 27.1 °F 32.0 °F 87% 30.11 in 10.0 mi NNW 12.7 mph 17.3 mph N/A   Partly Cloudy
3:15 PM 35.6 °F 27.5 °F 32.0 °F 87% 30.10 in 10.0 mi NNW 11.5 mph - N/A   Clear
3:35 PM 37.4 °F 28.9 °F 32.0 °F 81% 30.10 in 10.0 mi NNW 13.8 mph - N/A   Clear
3:55 PM 37.4 °F 29.3 °F 32.0 °F 81% 30.11 in 10.0 mi NNW 12.7 mph - N/A   Clear
4:15 PM 37.4 °F 29.8 °F 32.0 °F 81% 30.11 in 10.0 mi North 11.5 mph - N/A   Partly Cloudy
4:35 PM 37.4 °F 30.3 °F 32.0 °F 81% 30.12 in 10.0 mi North 10.4 mph - N/A   Mostly Cloudy
4:55 PM 39.2 °F 31.2 °F 33.8 °F 81% 30.12 in 10.0 mi North 13.8 mph - N/A   Mostly Cloudy
5:15 PM 37.4 °F 30.3 °F 33.8 °F 87% 30.12 in 10.0 mi North 10.4 mph - N/A   Scattered Clouds
5:35 PM 39.2 °F 32.5 °F 32.0 °F 75% 30.12 in 10.0 mi North 10.4 mph 16.1 mph N/A   Clear
5:55 PM 39.2 °F 31.2 °F 32.0 °F 75% 30.12 in 10.0 mi North 13.8 mph 18.4 mph N/A   Clear
6:15 PM 37.4 °F 28.9 °F 32.0 °F 81% 30.13 in 10.0 mi North 13.8 mph 17.3 mph N/A   Scattered Clouds
6:35 PM 37.4 °F 31.4 °F 32.0 °F 81% 30.14 in 10.0 mi North 8.1 mph - N/A   Scattered Clouds
6:55 PM 37.4 °F 32.1 °F 32.0 °F 81% 30.14 in 10.0 mi North 6.9 mph - N/A   Partly Cloudy
7:15 PM 35.6 °F 31.7 °F 32.0 °F 87% 30.15 in 10.0 mi NNW 4.6 mph - N/A   Clear
7:35 PM 33.8 °F 29.6 °F 32.0 °F 93% 30.15 in 10.0 mi NNW 4.6 mph - N/A   Clear
7:55 PM 32.0 °F 27.5 °F 32.0 °F 100% 30.15 in 10.0 mi NNW 4.6 mph - N/A   Scattered Clouds
8:15 PM 32.0 °F 27.5 °F 32.0 °F 100% 30.15 in 10.0 mi NNW 4.6 mph - N/A   Mostly Cloudy
8:35 PM 32.0 °F 28.7 °F 32.0 °F 100% 30.16 in 10.0 mi WNW 3.5 mph - N/A   Overcast
8:55 PM 32.0 °F 28.7 °F 32.0 °F 100% 30.16 in 10.0 mi WNW 3.5 mph - N/A   Overcast
9:15 PM 32.0 °F 28.7 °F 32.0 °F 100% 30.15 in 10.0 mi West 3.5 mph - N/A   Overcast
9:35 PM 30.2 °F 25.4 °F 30.2 °F 100% 30.15 in 10.0 mi West 4.6 mph - N/A   Mostly Cloudy
9:55 PM 28.4 °F 23.3 °F 28.4 °F 100% 30.15 in 10.0 mi WSW 4.6 mph - N/A   Partly Cloudy
10:15 PM 28.4 °F 22.2 °F 28.4 °F 100% 30.15 in 10.0 mi SW 5.8 mph - N/A   Clear
10:35 PM 28.4 °F 21.2 °F 28.4 °F 100% 30.15 in 10.0 mi SW 6.9 mph - N/A   Clear
10:55 PM 28.4 °F 21.2 °F 28.4 °F 100% 30.15 in 10.0 mi SW 6.9 mph - N/A   Partly Cloudy
11:15 PM 28.4 °F 21.2 °F 28.4 °F 100% 30.14 in 10.0 mi SSW 6.9 mph - N/A   Clear
11:35 PM 26.6 °F 18.2 °F 26.6 °F 100% 30.13 in 10.0 mi SSW 8.1 mph - N/A   Clear
11:55 PM 26.6 °F 19.1 °F 26.6 °F 100% 30.13 in 10.0 mi SW 6.9 mph - N/A   Clear